Columbus, GA

9:24 AM EDT on October 17, 2017 (GMT -0400)
Columbus Metro

Weather History for KCSG - March, 2013

Change the Weather History Date:

Tuesday, March 5, 2013

  Actual Average Record
Temperature  
Mean Temperature 58 °F 55 °F  
Max Temperature 73 °F 67 °F 84 °F (1989)
Min Temperature 42 °F 44 °F 19 °F (1960)
Degree Days  
Heating Degree Days 7 10  
Month to date heating degree days 94 53  
Since 1 July heating degree days 1450 1830  
Cooling Degree Days 0 0  
Month to date cooling degree days 0 0  
Year to date cooling degree days 25 4  
Growing Degree Days 8 (Base 50)    
Moisture  
Dew Point 46 °F    
Average Humidity 62    
Maximum Humidity 77    
Minimum Humidity 46    
Precipitation  
Precipitation 0.08 in 0.18 in 3.62 in (1929)
Month to date precipitation 0.08 0.88  
Year to date precipitation 15.77 9.17  
Snow  
Snow 0.00 in 0.00 in 0.00 in (2002)
Month to date snowfall 0.0 0.0  
Since 1 July snowfall 0.0 0.3  
Snow Depth -    
Sea Level Pressure  
Sea Level Pressure 29.97 in    
Wind  
Wind Speed 11 mph (WSW)    
Max Wind Speed 41 mph    
Max Gust Speed 52 mph    
Visibility 10 miles    
Events Rain , Thunderstorm    
T = Trace of Precipitation, MM = Missing Value Source: NWS Daily Summary

Daily Weather History Graph

Daily Weather History Graph

Search for Another Location

Airport or City:

Trip Planner

Search our weather history database for the weather conditions in past years. The results will help you decide how hot, cold, wet, or windy it might be!

Date:

Astronomy

Mar. 05, 2013 Rise Set
Actual Time 7:02 AM EST 6:40 PM EST
Civil Twilight 6:37 AM EST 7:05 PM EST
Nautical Twilight 6:09 AM EST 7:33 PM EST
Astronomical Twilight 5:40 AM EST 8:02 PM EST
Moon 1:59 AM EST (3/5) 12:33 PM EST (3/5)
Length of Visible Light 12h 27m
Length of Day
11h 38m
Last Quarter, 41% of the Moon is Illuminated
Mar 5
Last Quarter
Mar 11
New
Mar 19
First Quarter
Mar 27
Full
Apr 3
Last Quarter

Hourly Weather History & Observations

Time (EST) Temp. Windchill Dew Point Humidity Pressure Visibility Wind Dir Wind Speed Gust Speed Precip Events Conditions
12:51 AM 53.1 °F - 36.0 °F 52% 30.06 in 10.0 mi SSW 3.5 mph - N/A   Clear
2:44 AM 53.6 °F - 39.2 °F 58% 30.08 in 10.0 mi Calm Calm - N/A   Overcast
2:51 AM 53.1 °F - 39.9 °F 61% 30.08 in 10.0 mi Calm Calm - N/A   Overcast
3:25 AM 53.6 °F - 41.0 °F 62% 30.08 in 10.0 mi Calm Calm - N/A   Overcast
3:36 AM 53.6 °F - 41.0 °F 62% 30.08 in 10.0 mi SW 3.5 mph - N/A   Overcast
3:51 AM 52.0 °F - 42.1 °F 69% 30.07 in 10.0 mi Calm Calm - 0.00 in Rain Light Rain
3:58 AM 51.8 °F - 42.8 °F 71% 30.08 in 10.0 mi SSW 3.5 mph - 0.00 in Rain Light Rain
4:15 AM 51.8 °F - 42.8 °F 71% 30.07 in 10.0 mi SSW 3.5 mph - 0.00 in   Overcast
4:25 AM 51.8 °F - 42.8 °F 71% 30.07 in 10.0 mi South 5.8 mph - 0.00 in   Overcast
4:51 AM 52.0 °F - 42.1 °F 69% 30.06 in 10.0 mi South 5.8 mph - 0.00 in   Overcast
5:51 AM 52.0 °F - 42.1 °F 69% 30.05 in 10.0 mi SSW 8.1 mph - N/A   Scattered Clouds
6:51 AM 52.0 °F - 42.1 °F 69% 30.06 in 10.0 mi SSW 8.1 mph - N/A   Mostly Cloudy
7:51 AM 51.8 °F - 42.8 °F 71% 30.06 in 10.0 mi SSW 8.1 mph - N/A   Scattered Clouds
8:51 AM 54.0 °F - 45.0 °F 72% 30.06 in 10.0 mi SSW 6.9 mph - N/A   Overcast
9:51 AM 55.9 °F - 48.0 °F 75% 30.04 in 10.0 mi SSW 5.8 mph - N/A   Overcast
10:51 AM 57.9 °F - 50.0 °F 75% 30.02 in 10.0 mi SW 9.2 mph - N/A   Overcast
11:51 AM 62.1 °F - 52.0 °F 70% 29.98 in 10.0 mi SSW 13.8 mph 21.9 mph N/A   Mostly Cloudy
12:51 PM 66.9 °F - 53.1 °F 61% 29.94 in 10.0 mi WSW 15.0 mph 20.7 mph 0.01 in   Overcast
1:03 PM 66.2 °F - 53.6 °F 64% 29.93 in 10.0 mi WSW 12.7 mph 24.2 mph N/A   Overcast
1:51 PM 70.0 °F - 53.1 °F 55% 29.86 in 10.0 mi SW 17.3 mph 23.0 mph N/A   Mostly Cloudy
2:51 PM 72.0 °F - 52.0 °F 49% 29.83 in 10.0 mi WSW 13.8 mph 26.5 mph N/A   Overcast
3:51 PM 72.0 °F - 51.1 °F 48% 29.80 in 10.0 mi WSW 17.3 mph 27.6 mph N/A   Overcast
4:51 PM 72.0 °F - 52.0 °F 49% 29.73 in 10.0 mi SW 25.3 mph 36.8 mph N/A Thunderstorm Overcast
5:04 PM 64.4 °F - 53.6 °F 68% 29.83 in 2.5 mi NW 33.4 mph 51.8 mph 0.00 in Rain , Thunderstorm Light Rain
5:11 PM 60.8 °F - 53.6 °F 77% 29.82 in 10.0 mi NW 23.0 mph 49.5 mph 0.04 in Rain , Thunderstorm Light Rain
5:18 PM 60.8 °F - 53.6 °F 77% 29.84 in 10.0 mi WNW 18.4 mph 29.9 mph 0.04 in Rain Light Rain
5:24 PM 60.8 °F - 53.6 °F 77% 29.84 in 3.0 mi NW 21.9 mph 28.8 mph 0.04 in Rain Light Rain
5:43 PM 60.8 °F - 53.6 °F 77% 29.84 in 5.0 mi NW 18.4 mph 26.5 mph 0.07 in Rain Light Rain
5:51 PM 59.0 °F - 53.1 °F 81% 29.85 in 10.0 mi WNW 13.8 mph 23.0 mph 0.07 in Rain Light Rain
6:51 PM 57.9 °F - 53.1 °F 84% 29.88 in 10.0 mi WNW 11.5 mph - 0.00 in   Mostly Cloudy
7:51 PM 55.0 °F - 44.1 °F 67% 29.92 in 10.0 mi NW 15.0 mph 21.9 mph N/A   Clear
8:43 PM 51.8 °F - 41.0 °F 67% 29.97 in 10.0 mi NW 13.8 mph - N/A   Mostly Cloudy
8:51 PM 51.1 °F - 39.9 °F 66% 29.98 in 10.0 mi NW 18.4 mph 29.9 mph N/A   Mostly Cloudy
9:51 PM 46.0 °F 37.6 °F 33.1 °F 61% 30.02 in 10.0 mi NW 24.2 mph 31.1 mph N/A   Partly Cloudy
10:51 PM 44.1 °F 37.7 °F 30.0 °F 58% 30.05 in 10.0 mi NW 12.7 mph - N/A   Clear
11:51 PM 42.1 °F 37.1 °F 30.0 °F 62% 30.04 in 10.0 mi WNW 8.1 mph - N/A   Clear